User: anonymous   Login
Location: Unspecified
(0.0000°N, 0.0000°E)
Time: 14:21:41
(UTC+02:00)
Language:

Cosmos 1515 Rocket - Orbit

View from above orbital plane
View from above orbital plane
View from above satellite
View from above satellite

Ground track
Ground track

The orbit data is extracted from the following two-line orbital elements,

1 14552U 83122B   16126.04220097  .00000166  00000-0  17233-4 0  9996
2 14552  82.5231  98.6980 0018765  67.0960 293.2233 14.83328603748679
Epoch (UTC): 05 May 2016 01:00:46
Eccentricity: 0.0018765
inclination: 82.5231°
perigee height: 606 km
apogee height: 632 km
right ascension of ascending node: 98.6980°
argument of perigee: 67.0960°
revolutions per day: 14.83328603
mean anomaly at epoch: 293.2233°
orbit number at epoch: 74867

The dashed part of the orbit path shows where the satellite is in the earth's shadow,  

DLR